Time,TemperatureF,DewpointF,PressureIn,WindDirection,WindDirectionDegrees,WindSpeedMPH,WindSpeedGustMPH,Humidity,HourlyPrecipIn,Conditions,Clouds,dailyrainin,SolarRadiationWatts/m^2,SoftwareType,DateUTC
2013-05-07 00:00:00,61.0,34.0,-100.00,East,90,5.0,-999.0,37,-99.99,,,-99.99,0.000000,,2013-05-07 04:00:00,
2013-05-07 00:42:00,61.0,34.0,-100.00,East,90,5.0,-999.0,37,-99.99,,,-99.99,0.000000,,2013-05-07 04:42:00,
2013-05-07 00:53:00,61.0,34.0,-100.00,East,90,5.0,-999.0,37,-99.99,,,-99.99,0.000000,,2013-05-07 04:53:00,
2013-05-07 01:00:00,58.0,34.0,-100.00,East,90,3.0,-999.0,41,-99.99,,,-99.99,0.000000,,2013-05-07 05:00:00,
2013-05-07 01:42:00,58.0,34.0,-100.00,East,90,3.0,-999.0,41,-99.99,,,-99.99,0.000000,,2013-05-07 05:42:00,
2013-05-07 01:52:00,58.0,34.0,-100.00,East,90,3.0,-999.0,41,-99.99,,,-99.99,0.000000,,2013-05-07 05:52:00,
2013-05-07 02:00:00,56.0,32.0,-100.00,ENE,67,3.0,-999.0,39,-99.99,,,-99.99,0.000000,,2013-05-07 06:00:00,
2013-05-07 02:42:00,56.0,32.0,-100.00,ENE,67,3.0,-999.0,39,-99.99,,,-99.99,0.000000,,2013-05-07 06:42:00,
2013-05-07 02:52:00,56.0,32.0,-100.00,ENE,67,3.0,-999.0,39,-99.99,,,-99.99,0.000000,,2013-05-07 06:52:00,
2013-05-07 03:00:00,55.0,30.0,-100.00,ENE,67,4.0,-999.0,37,-99.99,,,-99.99,0.000000,,2013-05-07 07:00:00,
2013-05-07 03:42:00,55.0,30.0,-100.00,ENE,67,4.0,-999.0,37,-99.99,,,-99.99,0.000000,,2013-05-07 07:42:00,
2013-05-07 03:53:00,55.0,30.0,-100.00,ENE,67,4.0,-999.0,37,-99.99,,,-99.99,0.000000,,2013-05-07 07:53:00,
2013-05-07 04:00:00,54.0,26.0,-100.00,NE,45,3.0,-999.0,33,-99.99,,,-99.99,0.000000,,2013-05-07 08:00:00,
2013-05-07 04:42:00,54.0,26.0,-100.00,NE,45,3.0,-999.0,33,-99.99,,,-99.99,0.000000,,2013-05-07 08:42:00,
2013-05-07 04:52:00,54.0,26.0,-100.00,NE,45,3.0,-999.0,33,-99.99,,,-99.99,0.000000,,2013-05-07 08:52:00,
2013-05-07 05:00:00,50.0,29.0,-100.00,NE,45,3.0,-999.0,43,-99.99,,,-99.99,0.000000,,2013-05-07 09:00:00,
2013-05-07 05:43:00,50.0,29.0,-100.00,NE,45,3.0,-999.0,43,-99.99,,,-99.99,0.000000,,2013-05-07 09:43:00,
2013-05-07 05:52:00,50.0,29.0,-100.00,NE,45,3.0,-999.0,43,-99.99,,,-99.99,0.000000,,2013-05-07 09:52:00,
2013-05-07 06:00:00,47.0,32.0,-100.00,ENE,67,3.0,-999.0,55,-99.99,,,-99.99,0.000000,,2013-05-07 10:00:00,
2013-05-07 06:42:00,47.0,32.0,-100.00,ENE,67,3.0,-999.0,55,-99.99,,,-99.99,0.000000,,2013-05-07 10:42:00,
2013-05-07 06:52:00,47.0,32.0,-100.00,ENE,67,3.0,-999.0,55,-99.99,,,-99.99,0.000000,,2013-05-07 10:52:00,
2013-05-07 07:00:00,45.0,30.0,-100.00,NE,45,1.0,-999.0,55,-99.99,,,-99.99,18.559999,,2013-05-07 11:00:00,
2013-05-07 07:42:00,45.0,30.0,-100.00,NE,45,1.0,-999.0,55,-99.99,,,-99.99,18.559999,,2013-05-07 11:42:00,
2013-05-07 07:52:00,45.0,30.0,-100.00,NE,45,1.0,-999.0,55,-99.99,,,-99.99,18.559999,,2013-05-07 11:52:00,
2013-05-07 08:00:00,52.0,35.0,-100.00,NE,45,2.0,-999.0,50,-99.99,,,-99.99,147.320007,,2013-05-07 12:00:00,
2013-05-07 08:42:00,52.0,35.0,-100.00,NE,45,2.0,-999.0,50,-99.99,,,-99.99,147.320007,,2013-05-07 12:42:00,
2013-05-07 08:52:00,52.0,35.0,-100.00,NE,45,2.0,-999.0,50,-99.99,,,-99.99,147.320007,,2013-05-07 12:52:00,
2013-05-07 09:00:00,61.0,37.0,-100.00,ENE,67,1.0,-999.0,41,-99.99,,,-99.99,308.559998,,2013-05-07 13:00:00,
2013-05-07 09:42:00,61.0,37.0,-100.00,ENE,67,1.0,-999.0,41,-99.99,,,-99.99,308.559998,,2013-05-07 13:42:00,
2013-05-07 09:52:00,61.0,37.0,-100.00,ENE,67,1.0,-999.0,41,-99.99,,,-99.99,308.559998,,2013-05-07 13:52:00,
2013-05-07 10:00:00,65.0,35.0,-100.00,WSW,247,3.0,-999.0,33,-99.99,,,-99.99,473.279999,,2013-05-07 14:00:00,
2013-05-07 10:42:00,65.0,35.0,-100.00,WSW,247,3.0,-999.0,33,-99.99,,,-99.99,473.279999,,2013-05-07 14:42:00,
2013-05-07 10:52:00,65.0,35.0,-100.00,WSW,247,3.0,-999.0,33,-99.99,,,-99.99,473.279999,,2013-05-07 14:52:00,
2013-05-07 11:00:00,67.0,35.0,-100.00,WSW,247,3.0,-999.0,31,-99.99,,,-99.99,622.919983,,2013-05-07 15:00:00,
2013-05-07 11:43:00,67.0,35.0,-100.00,WSW,247,3.0,-999.0,31,-99.99,,,-99.99,622.919983,,2013-05-07 15:43:00,
2013-05-07 11:53:00,67.0,35.0,-100.00,WSW,247,3.0,-999.0,31,-99.99,,,-99.99,622.919983,,2013-05-07 15:53:00,
2013-05-07 14:00:00,74.0,40.0,-100.00,West,270,6.0,-999.0,29,-99.99,,,-99.99,823.599976,,2013-05-07 18:00:00,
2013-05-07 14:42:00,74.0,40.0,-100.00,West,270,6.0,-999.0,29,-99.99,,,-99.99,823.599976,,2013-05-07 18:42:00,
2013-05-07 14:52:00,74.0,40.0,-100.00,West,270,6.0,-999.0,29,-99.99,,,-99.99,823.599976,,2013-05-07 18:52:00,
2013-05-07 16:00:00,78.0,37.0,-100.00,SW,225,6.0,-999.0,23,-99.99,,,-99.99,735.440002,,2013-05-07 20:00:00,
2013-05-07 16:42:00,78.0,37.0,-100.00,SW,225,6.0,-999.0,23,-99.99,,,-99.99,735.440002,,2013-05-07 20:42:00,
2013-05-07 16:52:00,78.0,37.0,-100.00,SW,225,6.0,-999.0,23,-99.99,,,-99.99,735.440002,,2013-05-07 20:52:00,
2013-05-07 17:00:00,77.0,35.0,-100.00,SW,225,6.0,-999.0,21,-99.99,,,-99.99,627.559998,,2013-05-07 21:00:00,
2013-05-07 17:43:00,77.0,35.0,-100.00,SW,225,6.0,-999.0,21,-99.99,,,-99.99,627.559998,,2013-05-07 21:43:00,
2013-05-07 17:53:00,77.0,35.0,-100.00,SW,225,6.0,-999.0,21,-99.99,,,-99.99,627.559998,,2013-05-07 21:53:00,
2013-05-07 18:00:00,76.0,32.0,-100.00,SSE,157,7.0,-999.0,20,-99.99,,,-99.99,488.359985,,2013-05-07 22:00:00,
2013-05-07 18:42:00,76.0,32.0,-100.00,SSE,157,7.0,-999.0,20,-99.99,,,-99.99,488.359985,,2013-05-07 22:42:00,
2013-05-07 18:52:00,76.0,32.0,-100.00,SSE,157,7.0,-999.0,20,-99.99,,,-99.99,488.359985,,2013-05-07 22:52:00,
2013-05-07 19:00:00,75.0,32.0,-100.00,SE,135,6.0,-999.0,21,-99.99,,,-99.99,327.119995,,2013-05-07 23:00:00,
2013-05-07 19:42:00,75.0,32.0,-100.00,SE,135,6.0,-999.0,21,-99.99,,,-99.99,327.119995,,2013-05-07 23:42:00,
2013-05-07 19:52:00,75.0,32.0,-100.00,SE,135,6.0,-999.0,21,-99.99,,,-99.99,327.119995,,2013-05-07 23:52:00,
2013-05-07 20:00:00,74.0,34.0,-100.00,SE,135,4.0,-999.0,23,-99.99,,,-99.99,165.880005,,2013-05-08 00:00:00,
2013-05-07 20:42:00,74.0,34.0,-100.00,SE,135,4.0,-999.0,23,-99.99,,,-99.99,165.880005,,2013-05-08 00:42:00,
2013-05-07 20:52:00,74.0,34.0,-100.00,SE,135,4.0,-999.0,23,-99.99,,,-99.99,165.880005,,2013-05-08 00:52:00,
2013-05-07 21:00:00,70.0,33.0,-100.00,NE,45,4.0,-999.0,25,-99.99,,,-99.99,32.480000,,2013-05-08 01:00:00,
2013-05-07 21:42:00,70.0,33.0,-100.00,NE,45,4.0,-999.0,25,-99.99,,,-99.99,32.480000,,2013-05-08 01:42:00,
2013-05-07 21:52:00,70.0,33.0,-100.00,NE,45,4.0,-999.0,25,-99.99,,,-99.99,32.480000,,2013-05-08 01:52:00,
2013-05-07 22:00:00,67.0,32.0,-100.00,ENE,67,6.0,-999.0,28,-99.99,,,-99.99,0.000000,,2013-05-08 02:00:00,
2013-05-07 22:42:00,67.0,32.0,-100.00,ENE,67,6.0,-999.0,28,-99.99,,,-99.99,0.000000,,2013-05-08 02:42:00,
2013-05-07 22:52:00,67.0,32.0,-100.00,ENE,67,6.0,-999.0,28,-99.99,,,-99.99,0.000000,,2013-05-08 02:52:00,
2013-05-07 23:00:00,65.0,33.0,-100.00,East,90,5.0,-999.0,30,-99.99,,,-99.99,0.000000,,2013-05-08 03:00:00,
2013-05-07 23:43:00,65.0,33.0,-100.00,East,90,5.0,-999.0,30,-99.99,,,-99.99,0.000000,,2013-05-08 03:43:00,
2013-05-07 23:52:00,65.0,33.0,-100.00,East,90,5.0,-999.0,30,-99.99,,,-99.99,0.000000,,2013-05-08 03:52:00,